Fairfield, IL

1:52 PM CST on January 21, 2017 (GMT -0600)
Fairfield

Weather History for KFWC - July, 2013

Change the Weather History Date:

Monday, July 1, 2013

  Actual Average (KMVN) Record (KMVN)
Temperature  
Mean Temperature 65 °F -  
Max Temperature 66 °F 85 °F 104 °F (2012)
Min Temperature 64 °F 64 °F 57 °F (2008)
Growing Degree Days 15 (Base 50)    
Moisture  
Dew Point 63 °F    
Average Humidity 92    
Maximum Humidity 94    
Minimum Humidity 88    
Precipitation  
Precipitation 1.40 in - - ()
Sea Level Pressure  
Sea Level Pressure 29.89 in    
Wind  
Wind Speed 9 mph (North)    
Max Wind Speed 13 mph    
Max Gust Speed 20 mph    
Visibility 10 miles    
Events Rain , Thunderstorm    
Averages and records for this station are not official NWS values.
T = Trace of Precipitation, MM = Missing Value Source: NWS Daily Summary

Daily Weather History Graph

Daily Weather History Graph

Search for Another Location

Airport or City:

Trip Planner

Search our weather history database for the weather conditions in past years. The results will help you decide how hot, cold, wet, or windy it might be!

Date:

Astronomy

Jul. 01, 2013 Rise Set
Actual Time 5:33 AM CDT 8:21 PM CDT
Civil Twilight 5:02 AM CDT 8:52 PM CDT
Nautical Twilight 4:22 AM CDT 9:32 PM CDT
Astronomical Twilight 3:37 AM CDT 10:17 PM CDT
Moon 1:00 AM CDT (7/1) 2:39 PM CDT (7/1)
Length of Visible Light 15h 50m
Length of Day
14h 47m
Waning Crescent, 35% of the Moon is Illuminated
Jul 1
Waning Crescent
Jul 8
New
Jul 15
First Quarter
Jul 22
Full
Jul 29
Last Quarter

Hourly Weather History & Observations

Time (CDT) Temp. Dew Point Humidity Pressure Visibility Wind Dir Wind Speed Gust Speed Precip Events Conditions
12:15 AM 66.2 °F 62.6 °F 88% 29.86 in 10.0 mi North 8.1 mph - N/A   Mostly Cloudy
12:35 AM 66.2 °F 62.6 °F 88% 29.86 in 10.0 mi NNE 10.4 mph - N/A   Overcast
12:55 AM 66.2 °F 62.6 °F 88% 29.85 in 10.0 mi North 9.2 mph - N/A Rain Light Rain
1:15 AM 66.2 °F 62.6 °F 88% 29.85 in 10.0 mi North 10.4 mph - N/A   Mostly Cloudy
1:35 AM 64.4 °F 62.6 °F 94% 29.85 in 10.0 mi North 9.2 mph - N/A   Mostly Cloudy
1:55 AM 64.4 °F 62.6 °F 94% 29.84 in 10.0 mi North 9.2 mph - N/A   Mostly Cloudy
2:15 AM 66.2 °F 62.6 °F 88% 29.84 in 10.0 mi North 11.5 mph - N/A   Overcast
2:35 AM 66.2 °F 62.6 °F 88% 29.84 in 10.0 mi NNE 9.2 mph - N/A   Overcast
2:55 AM 66.2 °F 62.6 °F 88% 29.84 in 10.0 mi North 10.4 mph - N/A   Overcast
3:15 AM 66.2 °F 62.6 °F 88% 29.84 in 10.0 mi North 8.1 mph - N/A Rain Rain
3:35 AM 64.4 °F 62.6 °F 94% 29.84 in 10.0 mi North 9.2 mph - 0.01 in Rain Light Rain
3:55 AM 64.4 °F 62.6 °F 94% 29.84 in 10.0 mi North 9.2 mph - 0.03 in Rain Light Rain
4:15 AM 64.4 °F 62.6 °F 94% 29.85 in 10.0 mi North 9.2 mph - 0.04 in Rain Rain
4:35 AM 64.4 °F 62.6 °F 94% 29.85 in 7.0 mi North 9.2 mph - 0.04 in Rain , Thunderstorm Rain
4:55 AM 64.4 °F 62.6 °F 94% 29.85 in 10.0 mi North 11.5 mph - 0.05 in Thunderstorm Unknown
5:15 AM 64.4 °F 62.6 °F 94% 29.86 in 10.0 mi North 9.2 mph - 0.04 in Rain Light Rain
5:35 AM 64.4 °F 62.6 °F 94% 29.86 in 10.0 mi North 9.2 mph - 0.04 in   Overcast
5:55 AM 64.4 °F 62.6 °F 94% 29.86 in 10.0 mi North 9.2 mph - 0.04 in Thunderstorm Thunderstorm
6:15 AM 64.4 °F 62.6 °F 94% 29.87 in 10.0 mi North 9.2 mph - 0.07 in Rain , Thunderstorm Rain
6:35 AM 64.4 °F 62.6 °F 94% 29.87 in 10.0 mi NNE 10.4 mph 18.4 mph 0.13 in Rain Rain
6:55 AM 64.4 °F 62.6 °F 94% 29.88 in 10.0 mi ENE 6.9 mph - 0.16 in Rain Rain
7:15 AM 64.4 °F 62.6 °F 94% 29.88 in 10.0 mi NNE 6.9 mph - 0.04 in Rain , Thunderstorm Thunderstorms and Rain
7:35 AM 64.4 °F 62.6 °F 94% 29.89 in 10.0 mi North 9.2 mph - 0.08 in Rain Rain
7:55 AM 64.4 °F 62.6 °F 94% 29.89 in 10.0 mi North 8.1 mph - 0.16 in Rain , Thunderstorm Heavy Thunderstorms and Rain
8:15 AM 64.4 °F 62.6 °F 94% 29.89 in 10.0 mi North 6.9 mph - 0.09 in Rain Heavy Rain
8:35 AM 64.4 °F 62.6 °F 94% 29.89 in 10.0 mi NNE 8.1 mph - 0.13 in Rain , Thunderstorm Rain
8:55 AM 64.4 °F 62.6 °F 94% 29.89 in 10.0 mi North 9.2 mph 16.1 mph 0.14 in Rain Light Rain
9:15 AM 66.2 °F 62.6 °F 88% 29.89 in 10.0 mi North 9.2 mph - N/A Rain , Thunderstorm Light Thunderstorms and Rain
9:35 AM 66.2 °F 62.6 °F 88% 29.89 in 10.0 mi North 10.4 mph - N/A Thunderstorm Unknown
9:55 AM 66.2 °F 62.6 °F 88% 29.89 in 10.0 mi North 11.5 mph 16.1 mph N/A   Overcast
10:15 AM 66.2 °F 62.6 °F 88% 29.88 in 10.0 mi North 12.7 mph - N/A   Mostly Cloudy
10:35 AM 66.2 °F 62.6 °F 88% 29.89 in 10.0 mi North 11.5 mph 17.3 mph N/A   Drizzle
10:55 AM 64.4 °F 62.6 °F 94% 29.89 in 7.0 mi North 10.4 mph 16.1 mph 0.03 in Rain , Thunderstorm Heavy Thunderstorms and Rain
11:15 AM 64.4 °F 62.6 °F 94% 29.90 in 10.0 mi North 11.5 mph 16.1 mph 0.08 in Rain , Thunderstorm Heavy Thunderstorms and Rain
11:35 AM 64.4 °F 62.6 °F 94% 29.89 in 10.0 mi North 10.4 mph - 0.16 in Rain Rain
11:55 AM 64.4 °F 62.6 °F 94% 29.90 in 10.0 mi North 11.5 mph 19.6 mph 0.24 in Rain , Thunderstorm Heavy Thunderstorms and Rain
12:15 PM 64.4 °F 62.6 °F 94% 29.90 in 10.0 mi North 8.1 mph - 0.03 in Rain , Thunderstorm Rain
12:35 PM 64.4 °F 62.6 °F 94% 29.90 in 10.0 mi North 9.2 mph - 0.04 in Rain Light Rain
12:55 PM 66.2 °F 62.6 °F 88% 29.90 in 10.0 mi North 9.2 mph - 0.04 in Rain Light Rain
1:15 PM 66.2 °F 62.6 °F 88% 29.90 in 10.0 mi North 10.4 mph - N/A Rain Light Rain
1:55 PM 66.2 °F 64.4 °F 94% 29.90 in 10.0 mi North 11.5 mph 18.4 mph N/A   Light Drizzle
2:15 PM 66.2 °F 62.6 °F 88% 29.91 in 10.0 mi North 10.4 mph - N/A   Light Drizzle
2:35 PM 66.2 °F 62.6 °F 88% 29.91 in 10.0 mi North 8.1 mph - N/A Rain Rain
2:55 PM 66.2 °F 64.4 °F 94% 29.91 in 10.0 mi North 5.8 mph - N/A   Overcast
3:15 PM 66.2 °F 64.4 °F 94% 29.90 in 7.0 mi North 8.1 mph - N/A Rain Light Rain
3:35 PM 66.2 °F 64.4 °F 94% 29.90 in 10.0 mi NNW 5.8 mph - 0.02 in Rain Rain
3:55 PM 66.2 °F 64.4 °F 94% 29.90 in 10.0 mi NNW 4.6 mph - 0.03 in Rain Light Rain
4:15 PM 66.2 °F 64.4 °F 94% 29.90 in 10.0 mi North 6.9 mph - 0.01 in Rain Rain
4:35 PM 66.2 °F 64.4 °F 94% 29.90 in 10.0 mi North 9.2 mph - 0.03 in Rain Light Rain
4:55 PM 66.2 °F 64.4 °F 94% 29.90 in 7.0 mi North 6.9 mph - 0.04 in Rain Rain
5:15 PM 66.2 °F 64.4 °F 94% 29.90 in 10.0 mi NNE 10.4 mph - 0.02 in Rain Rain
5:35 PM 66.2 °F 64.4 °F 94% 29.90 in 10.0 mi NNE 6.9 mph - 0.06 in Rain Rain
5:55 PM 66.2 °F 62.6 °F 88% 29.90 in 10.0 mi North 9.2 mph - 0.08 in Rain Rain
6:15 PM 64.4 °F 62.6 °F 94% 29.91 in 10.0 mi North 6.9 mph - 0.02 in Rain Rain
6:35 PM 64.4 °F 62.6 °F 94% 29.91 in 10.0 mi North 5.8 mph - 0.03 in Rain , Thunderstorm Light Thunderstorms and Rain
6:55 PM 66.2 °F 62.6 °F 88% 29.90 in 10.0 mi North 3.5 mph - 0.04 in Rain Light Rain
7:15 PM 66.2 °F 62.6 °F 88% 29.90 in 10.0 mi NNW 4.6 mph - N/A Rain Light Rain
7:35 PM 64.4 °F 62.6 °F 94% 29.91 in 10.0 mi Calm Calm - 0.02 in Rain Light Rain
7:55 PM 64.4 °F 62.6 °F 94% 29.90 in 10.0 mi NNW 3.5 mph - 0.05 in Rain Light Rain
8:15 PM 64.4 °F 62.6 °F 94% 29.91 in 7.0 mi North 4.6 mph - 0.12 in Rain Heavy Rain
8:35 PM 66.2 °F 62.6 °F 88% 29.90 in 10.0 mi North 8.1 mph - 0.16 in Rain Light Rain
8:55 PM 66.2 °F 62.6 °F 88% 29.90 in 10.0 mi NNW 10.4 mph 19.6 mph 0.17 in Rain Rain
9:15 PM 66.2 °F 62.6 °F 88% 29.90 in 10.0 mi NNW 12.7 mph 17.3 mph 0.01 in Rain Rain
9:35 PM 66.2 °F 62.6 °F 88% 29.91 in 10.0 mi North 9.2 mph - 0.02 in Rain Rain
9:55 PM 66.2 °F 64.4 °F 94% 29.91 in 10.0 mi North 9.2 mph - 0.02 in   Drizzle
10:15 PM 66.2 °F 64.4 °F 94% 29.91 in 10.0 mi North 10.4 mph - N/A Rain Light Rain
10:35 PM 66.2 °F 64.4 °F 94% 29.91 in 7.0 mi North 10.4 mph - 0.02 in Rain Rain
10:55 PM 66.2 °F 64.4 °F 94% 29.91 in 10.0 mi NNE 9.2 mph - 0.05 in Rain Rain
11:15 PM 66.2 °F 64.4 °F 94% 29.91 in 10.0 mi NNE 9.2 mph - 0.01 in Rain Light Rain
11:35 PM 66.2 °F 64.4 °F 94% 29.91 in 7.0 mi North 5.8 mph - 0.02 in Rain Rain
11:55 PM 66.2 °F 64.4 °F 94% 29.91 in 7.0 mi NNE 9.2 mph - 0.03 in Rain Rain